IU2EVW-3 Weather Reports


time (UTC)temp
F
wind
direction
speed
knots
gust
knots
rain 1hr
in
rain 24hr
in
rain mn
in
humidity
%
barometer
mb
20260505211913 55 0.0 0.0 0.00 0.00 0.00 95 1013.6
20260505205911 55 0.0 0.0 0.00 0.00 0.00 95 1013.8
20260505203910 55 0.0 0.0 0.00 0.00 0.00 95 1014.0
20260505201909 55 0.0 0.0 0.00 0.00 0.00 96 1013.9
20260505195908 55 0.0 0.0 0.00 0.00 0.00 97 1013.9
20260505193906 55 0.0 0.0 0.00 0.00 0.00 95 1013.8
20260505191905 55 0.0 0.0 0.00 0.00 0.00 93 1013.8
20260505185904 55 0.0 0.0 0.00 0.00 0.00 91 1013.6
20260505183903 56 0.0 0.0 0.00 0.00 0.00 89 1013.4
20260505181902 56 0.0 0.0 0.00 0.00 0.00 90 1013.4
20260505175901 56 0.0 0.0 0.00 0.00 0.00 90 1013.3
20260505173859 56 0.0 0.0 0.00 0.00 0.00 90 1013.4
20260505171858 56 0.0 0.0 0.00 0.00 0.00 91 1013.4
20260505165857 55 0.0 0.0 0.00 0.00 0.00 90 1013.4
20260505163856 55 0.0 0.0 0.00 0.00 0.00 90 1013.5
20260505161855 55 0.0 0.0 0.00 0.00 0.00 90 1013.6
20260505151851 56 0.0 0.0 0.00 0.00 0.00 88 1013.7
20260505140302 58 0.0 0.0 0.00 0.00 0.00 80 1013.7
20260505130259 57 0.0 0.0 0.00 0.00 0.00 80 1014.0
20260505124257 57 0.0 0.0 0.00 0.00 0.00 80 1014.0
20260505122256 59 0.0 0.0 0.00 0.00 0.00 77 1014.1
20260505120255 60 0.0 0.0 0.00 0.00 0.00 73 1014.0
20260505114254 61 0.0 0.0 0.00 0.00 0.00 71 1014.0
20260505112253 58 0.0 0.0 0.00 0.00 0.00 79 1014.3
20260505110252 57 0.0 0.0 0.00 0.00 0.00 80 1014.4
20260505100248 56 0.0 0.0 0.00 0.00 0.00 82 1014.5
20260505094247 55 0.0 0.0 0.00 0.00 0.00 83 1014.5
20260505092246 55 0.0 0.0 0.00 0.00 0.00 84 1014.3
20260505090245 56 0.0 0.0 0.00 0.00 0.00 81 1014.4
20260505084243 56 0.0 0.0 0.00 0.00 0.00 79 1014.0
20260505082242 56 0.0 0.0 0.00 0.00 0.00 81 1014.1
20260505080241 56 0.0 0.0 0.00 0.00 0.00 83 1014.3
20260505074240 55 0.0 0.0 0.00 0.00 0.00 83 1014.1
20260505072238 54 0.0 0.0 0.00 0.00 0.00 84 1013.8
20260505070237 54 0.0 0.0 0.00 0.00 0.00 86 1014.0
20260505064236 54 0.0 0.0 0.00 0.00 0.00 84 1014.1
20260505062235 54 0.0 0.0 0.00 0.00 0.00 81 1014.2
20260505060234 54 0.0 0.0 0.00 0.00 0.00 80 1014.1
20260505054233 56 0.0 0.0 0.00 0.00 0.00 76 1014.0
20260505052232 57 0.0 0.0 0.00 0.00 0.00 71 1013.6
20260505050231 58 0.0 0.0 0.00 0.00 0.00 66 1013.4
20260505040227 59 0.0 0.0 0.00 0.00 0.00 55 1012.9
20260505034226 59 0.0 0.0 0.00 0.00 0.00 55 1013.0
20260505032225 59 0.0 0.0 0.00 0.00 0.00 55 1013.2
20260505030224 59 0.0 0.0 0.00 0.00 0.00 54 1013.5
20260505024222 59 0.0 0.0 0.00 0.00 0.00 53 1013.7
20260505022221 59 0.0 0.0 0.00 0.00 0.00 54 1013.8
20260505020220 59 0.0 0.0 0.00 0.00 0.00 57 1014.0
20260505014219 58 0.0 0.0 0.00 0.00 0.00 58 1014.1
20260505012218 58 0.0 0.0 0.00 0.00 0.00 59 1014.5
20260505010217 59 0.0 0.0 0.00 0.00 0.00 59 1014.9
20260505004215 59 0.0 0.0 0.00 0.00 0.00 57 1015.0
20260505002214 59 0.0 0.0 0.00 0.00 0.00 57 1015.4
20260505000213 59 0.0 0.0 0.00 0.00 0.00 55 1015.6
20260504234212 60 0.0 0.0 0.00 0.00 0.00 55 1015.9
20260504232211 60 0.0 0.0 0.00 0.00 0.00 55 1016.1
20260504230210 60 0.0 0.0 0.00 0.00 0.00 55 1016.3
20260504224208 60 0.0 0.0 0.00 0.00 0.00 55 1016.3
20260504222207 61 0.0 0.0 0.00 0.00 0.00 51 1016.5
20260504220206 61 0.0 0.0 0.00 0.00 0.00 48 1016.5
20260504214205 62 0.0 0.0 0.00 0.00 0.00 46 1016.6